Regional Weather Roundup
Issued by NWS Boston, MA

Home | Current Version | Previous Version | Text Only | Print | Product List | Glossary On
Versions: 1 2 3 4 5 6 7 8 9 10 11 12 13 14 15 16 17 18 19 20 21 22 23 24 25 26 27 28 29 30 31 32 33 34 35 36 37 38 39 40 41 42 43 44 45 46 47 48 49 50
000
ASUS41 KBOX 101310
RWRBOX

REGIONAL WEATHER ROUNDUP
NATIONAL WEATHER SERVICE TAUNTON MA
900 AM EDT THU JUL 10 2014

NOTE:  "FAIR" INDICATES FEW OR NO CLOUDS BELOW 12,000 FEET WITH NO
SIGNIFICANT WEATHER AND/OR OBSTRUCTIONS TO VISIBILITY.  THE FOLLOWING
OBSERVATION LOCATIONS DO NOT REPORT PRESENT WEATHER...PROVINCETOWN...
SMITHFIELD...BLOCK ISLAND...KEENE...AND OXFORD.

MAZALL-101400-
EASTERN MASSACHUSETTS

CITY           SKY/WX    TMP DP  RH WIND       PRES   REMARKS
BOSTON         CLOUDY    75  51  43 NW10      30.08R
BEVERLY        CLOUDY    70  58  65 NW7       30.07R
LAWRENCE       PTSUNNY   70  60  70 W7        30.10R
BEDFORD        PTSUNNY   70  60  70 W7        30.08R
BLUE HILL        N/A     70  58  65 NW9       30.09R
NORWOOD        CLOUDY    74  55  51 NW9       30.08R
MARSHFIELD     CLOUDY    77  57  50 N5        30.08S
PLYMOUTH       CLOUDY    74  60  61 NW6       30.09R
TAUNTON        CLOUDY    76  59  55 CALM      30.08R
NEW BEDFORD    CLOUDY    75  65  70 NW5       30.07R
$$

MAZALL-101400-
CAPE COD AND THE ISLANDS

CITY           SKY/WX    TMP DP  RH WIND       PRES   REMARKS
FALMOUTH       CLOUDY    73  68  83 CALM      30.09R
HYANNIS        CLOUDY    75  67  76 CALM      30.07R
CHATHAM        CLOUDY    73  70  90 CALM      30.09R
PROVINCETOWN   PTSUNNY   68  66  94 W6        30.08R
NANTUCKET      CLOUDY    72  70  94 W5        30.08R
MARTHAS VNYRD  CLOUDY    70  69  97 NW6       30.07S FOG
$$

MAZALL-101400-
CENTRAL AND WESTERN MASSACHUSETTS

CITY           SKY/WX    TMP DP  RH WIND       PRES   REMARKS
WORCESTER      MOSUNNY   68  55  63 MISG      30.11R
FITCHBURG      MOSUNNY   73  58  59 NW7       30.10R
ORANGE           N/A    N/A N/A N/A MISG      30.11R
SPRINGFIELD    SUNNY     69  61  74 N6        30.10R
WESTFIELD      SUNNY     71  57  61 NE5       30.11R
NORTH ADAMS    SUNNY     66  58  75 CALM      30.14R
PITTSFIELD     SUNNY     65  55  70 NW8       30.13R
$$

RIZALL-101400-
RHODE ISLAND

CITY           SKY/WX    TMP DP  RH WIND       PRES   REMARKS
PROVIDENCE     CLOUDY    75  56  51 N5        30.09R
NEWPORT        CLOUDY    74  61  63 N8        30.08R
BLOCK ISLAND   CLOUDY    72  64  78 N3        30.09S
SMITHFIELD     PTSUNNY   72  57  60 NW7       30.12R
WESTERLY       CLOUDY    74  64  71 N3        30.10R
$$

CTZALL-101400-
CONNECTICUT

CITY           SKY/WX    TMP DP  RH WIND       PRES   REMARKS
BRADLEY INTL   PTSUNNY   72  58  61 N6        30.10R
HARTFORD       MOSUNNY   72  56  57 NW7       30.09S
BRIDGEPORT     MOSUNNY   72  58  61 NE10      30.09R
DANBURY        MOSUNNY   71  54  54 N6        30.12R
GROTON         CLOUDY    73  61  65 NE9       30.08R
NEW HAVEN      MOSUNNY   73  57  57 NE12      30.09R
CHESTER        FAIR      70  61  73 N5        30.11R
MERIDEN        MOSUNNY   72  56  57 N7        30.10R
WILLIMANTIC    PTSUNNY   72  58  61 N5        30.10R
OXFORD         MOSUNNY   70  55  60 NE8       30.13R
$$

MEZ002-015-021-024-NHZ003-005-008-011-012-014-VTZ005-008-101400-
NORTHERN NEW ENGLAND

CITY           SKY/WX    TMP DP  RH WIND       PRES   REMARKS
PORTLAND ME    MOSUNNY   72  61  68 NW9       30.04R
BANGOR ME      MOSUNNY   74  57  55 NW7       30.01R
CONCORD NH     SUNNY     69  56  62 NW8       30.08R
MANCHESTER NH  MOSUNNY   70  55  59 NW8       30.07R
NASHUA NH      MOSUNNY   71  56  59 NW10      30.09R
PORTSMOUTH NH  PTSUNNY   70  61  75 W7        30.05R
JAFFREY NH     SUNNY     67  54  63 CALM      30.13R
KEENE NH       SUNNY     66  52  59 CALM      30.12R
BURLINGTON VT  MOSUNNY   66  48  52 NW12      30.11R
MT. WASHINGTON FOG       39  39 100 W46         N/A  VSB 1/16WCI  25
$$

NYZ052-076-101400-
EASTERN NEW YORK

CITY           SKY/WX    TMP DP  RH WIND       PRES   REMARKS
ALBANY         MOSUNNY   68  56  65 NW6       30.14R
NEW YORK CITY  PTSUNNY   71  63  75 NE12      30.09R
$$

ANZALL-101400-
MARINE OBSERVATIONS

STATION/POSITION TIME  TEMP    WIND        PRES    VSBY  WAVE
                       AIR SEA DIR/SP/G                  HT/PER
                 (UTC) (F)     (DEG/KT/KT) (MB)    (MI)  (FT/S)
BOSTON BUOY      NOT AVBL
BUZZARDS BAY     NOT AVBL
NANTUCKET SOUND  NOT AVBL
MASS BAY-STELLWA NOT AVBL
ISLE OF SHOALS   NOT AVBL
S OF BLOCK IS    NOT AVBL
$$

......................KEY.........................
  SKY/WX - SKY CONDITION/PRESENT WEATHER
  TMP    - TEMPERATURE IN FAHRENHEIT
  DWPT   - DEWPOINT IN FAHRENHEIT
  RH     - RELATIVE HUMIDITY IN PERCENT
  WIND   - DIRECTION AND SPEED IN MPH
  PRES   - MEAN SEA LEVEL PRESSURE IN INCHES OF HG
  WCI    - WIND CHILL INDEX
  VSB    - VISIBILITY IN MILES
  HX     - HEAT INDEX
  TC     - TEMPERATURE IN CELSIUS
  VRB    - VARIABLE WIND DIRECTION
  N/A    - NOT AVAILABLE


USA.gov is the U.S. government's official web portal to all federal, state and local government web resources and services.